Hourly Weather Lugovoe

Today, 16 June, Wednesday

Time Temperature Precipitation Wind Pressure Humidity
00:00 +20°C° 0 mm 2 mps 728 mmHg 40%
01:00 +20°C° 0 mm 2 mps 728 mmHg 42%
02:00 +19°C° 0 mm 2 mps 728 mmHg 43%
03:00 +19°C° 0 mm 2 mps 728 mmHg 45%
04:00 +19°C° 0 mm 2 mps 728 mmHg 46%
05:00 +19°C° 0 mm 2 mps 728 mmHg 48%
06:00 +20°C° 0 mm 2 mps 728 mmHg 47%
07:00 +21°C° 0 mm 3 mps 728 mmHg 47%
08:00 +22°C° 0 mm 3 mps 728 mmHg 47%
09:00 +25°C° 0 mm 3 mps 728 mmHg 44%
10:00 +26°C° 0 mm 3 mps 729 mmHg 42%
11:00 +27°C° 0 mm 3 mps 729 mmHg 42%
12:00 +28°C° 0 mm 4 mps 728 mmHg 39%
13:00 +29°C° 0 mm 4 mps 728 mmHg 36%
14:00 +30°C° 0 mm 4 mps 728 mmHg 33%
15:00 +30°C° 0 mm 5 mps 728 mmHg 35%
16:00 +30°C° 0 mm 5 mps 728 mmHg 37%
17:00 +30°C° 0 mm 6 mps 727 mmHg 37%
18:00 +28°C° 0 mm 4 mps 727 mmHg 44%
19:00 +26°C° 0 mm 3 mps 727 mmHg 51%
20:00 +24°C° 0 mm 2 mps 727 mmHg 59%
21:00 +21°C° 0.2 mm 2 mps 727 mmHg 67%
22:00 +20°C° 0.2 mm 2 mps 727 mmHg 75%
23:00 +18°C° 0.2 mm 2 mps 727 mmHg 84%

Tomorrow, 17 June, Thursday

Time Temperature Precipitation Wind Pressure Humidity
00:00 +18°C° 0 mm 2 mps 727 mmHg 82%
01:00 +18°C° 0 mm 2 mps 727 mmHg 81%
02:00 +18°C° 0 mm 2 mps 727 mmHg 79%
03:00 +18°C° 0 mm 2 mps 727 mmHg 78%
04:00 +19°C° 0 mm 2 mps 727 mmHg 76%
05:00 +19°C° 0 mm 2 mps 727 mmHg 75%
06:00 +21°C° 0 mm 2 mps 727 mmHg 65%
07:00 +24°C° 0 mm 3 mps 727 mmHg 56%
08:00 +27°C° 0 mm 3 mps 727 mmHg 46%
09:00 +28°C° 0 mm 3 mps 727 mmHg 41%
10:00 +30°C° 0 mm 3 mps 726 mmHg 35%
11:00 +33°C° 0 mm 3 mps 726 mmHg 30%
12:00 +33°C° 0 mm 3 mps 726 mmHg 29%
13:00 +32°C° 0 mm 2 mps 726 mmHg 28%
14:00 +34°C° 0 mm 2 mps 725 mmHg 27%
15:00 +31°C° 0.1 mm 3 mps 725 mmHg 31%
16:00 +29°C° 0.1 mm 3 mps 725 mmHg 36%
17:00 +27°C° 0.1 mm 4 mps 724 mmHg 41%
18:00 +26°C° 0.1 mm 4 mps 724 mmHg 46%
19:00 +23°C° 0.1 mm 5 mps 724 mmHg 52%
20:00 +22°C° 0.1 mm 5 mps 723 mmHg 57%
21:00 +21°C° 0 mm 4 mps 723 mmHg 58%
22:00 +20°C° 0 mm 4 mps 723 mmHg 58%
23:00 +20°C° 0 mm 3 mps 722 mmHg 59%

Day after tomorrow, 18 June, Friday

Time Temperature Precipitation Wind Pressure Humidity
00:00 +19°C° 0 mm 3 mps 722 mmHg 59%
01:00 +19°C° 0 mm 3 mps 721 mmHg 58%
02:00 +19°C° 0 mm 3 mps 721 mmHg 58%
03:00 +19°C° 0 mm 3 mps 720 mmHg 57%
04:00 +19°C° 0 mm 4 mps 720 mmHg 56%
05:00 +19°C° 0 mm 4 mps 719 mmHg 55%
06:00 +21°C° 0 mm 5 mps 719 mmHg 50%
07:00 +25°C° 0 mm 5 mps 719 mmHg 44%
08:00 +27°C° 0 mm 6 mps 719 mmHg 39%
09:00 +28°C° 0 mm 6 mps 719 mmHg 36%
10:00 +30°C° 0 mm 6 mps 718 mmHg 33%
11:00 +32°C° 0 mm 6 mps 718 mmHg 30%
12:00 +30°C° 0 mm 5 mps 718 mmHg 34%
13:00 +29°C° 0 mm 4 mps 717 mmHg 38%
14:00 +28°C° 0 mm 3 mps 717 mmHg 42%
15:00 +22°C° 0.4 mm 6 mps 717 mmHg 58%
16:00 +17°C° 0.4 mm 8 mps 718 mmHg 74%
17:00 +12°C° 0.4 mm 10 mps 718 mmHg 90%
18:00 +9°C° 0.2 mm 10 mps 719 mmHg 90%
19:00 +8°C° 0.2 mm 9 mps 720 mmHg 90%
20:00 +7°C° 0.2 mm 9 mps 721 mmHg 91%
21:00 +7°C° 0 mm 9 mps 721 mmHg 89%
22:00 +7°C° 0 mm 9 mps 721 mmHg 88%
23:00 +6°C° 0 mm 9 mps 721 mmHg 86%

19 June, Saturday

Time Temperature Precipitation Wind Pressure Humidity
00:00 +6°C° 0 mm 9 mps 722 mmHg 85%
01:00 +6°C° 0 mm 9 mps 722 mmHg 84%
02:00 +6°C° 0 mm 9 mps 722 mmHg 83%
03:00 +6°C° 0 mm 8 mps 722 mmHg 81%
04:00 +6°C° 0 mm 7 mps 722 mmHg 79%
05:00 +7°C° 0 mm 6 mps 723 mmHg 78%
06:00 +8°C° 0 mm 7 mps 723 mmHg 70%
07:00 +7°C° 0 mm 8 mps 723 mmHg 63%
08:00 +9°C° 0 mm 8 mps 724 mmHg 55%
09:00 +10°C° 0 mm 9 mps 724 mmHg 50%
10:00 +11°C° 0 mm 9 mps 724 mmHg 45%
11:00 +12°C° 0 mm 10 mps 724 mmHg 40%
12:00 +12°C° 0.1 mm 10 mps 724 mmHg 42%
13:00 +12°C° 0.1 mm 9 mps 724 mmHg 43%
14:00 +12°C° 0.1 mm 9 mps 724 mmHg 45%
15:00 +12°C° 0 mm 8 mps 724 mmHg 45%
16:00 +12°C° 0 mm 8 mps 724 mmHg 46%
17:00 +12°C° 0 mm 7 mps 724 mmHg 47%
18:00 +13°C° 0 mm 6 mps 724 mmHg 47%
19:00 +13°C° 0 mm 6 mps 724 mmHg 47%
20:00 +13°C° 0 mm 5 mps 724 mmHg 46%
21:00 +12°C° 0.1 mm 5 mps 724 mmHg 52%
22:00 +11°C° 0.1 mm 4 mps 724 mmHg 57%
23:00 +10°C° 0.1 mm 4 mps 724 mmHg 62%

20 June, Sunday

Time Temperature Precipitation Wind Pressure Humidity
00:00 +9°C° 0 mm 5 mps 723 mmHg 63%
01:00 +9°C° 0 mm 5 mps 723 mmHg 64%
02:00 +9°C° 0 mm 6 mps 723 mmHg 66%
03:00 +8°C° 0 mm 6 mps 723 mmHg 69%
04:00 +8°C° 0 mm 6 mps 723 mmHg 73%
05:00 +8°C° 0 mm 6 mps 723 mmHg 76%
06:00 +9°C° 0 mm 6 mps 723 mmHg 68%
07:00 +11°C° 0 mm 7 mps 723 mmHg 60%
08:00 +14°C° 0 mm 7 mps 723 mmHg 52%
09:00 +15°C° 0 mm 7 mps 723 mmHg 48%
10:00 +15°C° 0 mm 7 mps 723 mmHg 43%
11:00 +16°C° 0 mm 7 mps 722 mmHg 38%
12:00 +17°C° 0 mm 7 mps 722 mmHg 36%
13:00 +18°C° 0 mm 7 mps 722 mmHg 35%
14:00 +18°C° 0 mm 7 mps 722 mmHg 34%
15:00 +19°C° 0 mm 6 mps 722 mmHg 36%
16:00 +19°C° 0 mm 5 mps 722 mmHg 39%
17:00 +19°C° 0 mm 5 mps 722 mmHg 42%
18:00 +18°C° 0 mm 4 mps 722 mmHg 49%
19:00 +17°C° 0 mm 4 mps 722 mmHg 56%
20:00 +15°C° 0 mm 4 mps 722 mmHg 64%
21:00 +14°C° 0 mm 4 mps 722 mmHg 68%
22:00 +14°C° 0 mm 4 mps 721 mmHg 72%
23:00 +14°C° 0 mm 4 mps 721 mmHg 76%

21 June, Monday

Time Temperature Precipitation Wind Pressure Humidity
00:00 +14°C° 0.3 mm 4 mps 721 mmHg 80%
01:00 +13°C° 0.3 mm 5 mps 720 mmHg 85%
02:00 +13°C° 0.3 mm 5 mps 720 mmHg 89%
03:00 +13°C° 0.4 mm 6 mps 720 mmHg 87%
04:00 +11°C° 0.4 mm 7 mps 721 mmHg 85%
05:00 +10°C° 0.4 mm 8 mps 721 mmHg 83%
06:00 +10°C° 0 mm 8 mps 722 mmHg 77%
07:00 +11°C° 0 mm 9 mps 722 mmHg 72%
08:00 +11°C° 0 mm 10 mps 722 mmHg 66%
09:00 +11°C° 0 mm 9 mps 723 mmHg 64%
10:00 +11°C° 0 mm 8 mps 723 mmHg 63%
11:00 +11°C° 0 mm 8 mps 724 mmHg 61%
12:00 +12°C° 0 mm 8 mps 724 mmHg 58%
13:00 +13°C° 0 mm 8 mps 724 mmHg 55%
14:00 +15°C° 0 mm 8 mps 724 mmHg 51%
15:00 +16°C° 0 mm 8 mps 724 mmHg 49%
16:00 +16°C° 0 mm 8 mps 725 mmHg 46%
17:00 +17°C° 0 mm 8 mps 725 mmHg 43%
18:00 +15°C° 0 mm 7 mps 725 mmHg 50%
19:00 +14°C° 0 mm 5 mps 725 mmHg 56%
20:00 +13°C° 0 mm 4 mps 726 mmHg 63%
21:00 +11°C° 0 mm 3 mps 726 mmHg 68%
22:00 +10°C° 0 mm 2 mps 726 mmHg 73%
23:00 +9°C° 0 mm 2 mps 725 mmHg 78%
Show more

We Need Your Consent

Meteoprog and our Service Providers may store and access personal data such as cookies, device identifiers or other similar technologies on your device and process such data to personalise content and ads, as well as provide social media features and to analyse the traffic.

  • Store and/or access information on your device

    Cookies, device identifiers or other information can be stored or accessed on your device for the purposes indicated above.

  • Personalised ads and content, ad and content measurement, audience insights, and products development

    Ads and content can be personalised based on a profile. More data can be added to better personalise ads and content. Ad and content performance can be measured. Insights about the audience who saw the ads and content can be derived. Such data can be used to develop or improve user’s experience, systems and software.

By clicking ‘I Agree’ you will allow the use of indicated cookies, device identifiers, web beacons or other similar technologies. Your settings can be changed in the browser on your device.

For certain purposes, legitimate interests may be relied on, rather than consent. You can read more about this in our Privacy and Cookie Policy.